BEIDOU-3 M7 (C29)

Last updated on Jan. 18, 2020, 4:39 a.m. UTC

1 43245U 18029A   20016.96205569 -.00000069  00000-0  00000-0 0  9995
2 43245  55.2797  20.6268 0002274 273.5686 263.9826  1.86232826 12255
UTC
Height (km)
Latitude
Longitude
Inclination
Orbital Period
UTC large
Height (km)
Speed (km/s)
/
Latitude / Longitude
Inclination (degrees)
Orbital Period (minutes)
Azimuth
Elevation
Range (km)
Doppler Factor
iOS Compass Heading
iOS Angle

Next 30 passes for location: Hong Kong

Rise time Rise Azimuth (degrees) Set time Set Azimuth (degrees) Duration Max altitude (degrees)

No matching passes for this satellites